カタログに戻る

STARLINK-37916

運用中通信SSO
NORAD 69565·PAYLOAD·🇺🇸 United States

打ち上げ Jun 15, 2026 から Vandenberg Space Force Base

Loading…

次のパス (今後24時間)

TLE

最新Source: CelesTrak SupGP

元期: Sep 15, 2026, 04:03 UTC

1 69565C 26135V   26258.16923611 -.00062175  00000+0 -19304-2 0  2589
2 69565  97.2838 285.9850 0000979  92.3993  17.8349 15.33465071    15

AllMySatでSTARLINK-37916をリアルタイム追跡

Download on the App Store